Find Starlink 31623

NORAD ID: 59272 Int'l Des: 2024-050 Owner: SPXS Country: US Constellation: starlink operational
LEOCIRCULAR

实时位置

正在加载3D地球...

关于 Starlink 31623

正在加载描述...

即将过境

Passes for default location (London). Set your location on the main map for personalized predictions.

高度历史

Loading altitude history...

两行轨道根数

1 59272U 24050U 26133.02660885 -.00000200 00000-0 53696-5 0 9993
2 59272 53.1610 241.8187 0001306 95.9931 264.1219 15.30187281120408
Epoch: May 13, 2026 • Age: 14 hours

当前状态

高度 487.2 km
速度 7.62 km/s
星下点 -35.28°S, 117.75°E
发射日期 Mar 19, 2024
运行时间 2.1 years
类型 internet

技术详情

分类 Payload
质量 730.00 kg
干质量 700.00 kg
总质量 730.00 kg
长度 0.30 m
直径 4.10 m
跨度 29.00 m
形状 Box + pan
制造商 SPXS
平台类型 Starlink V2M
阶段状态 In Orbit
所有者/国家 SPXS/US

Most Searched